Location: Newark
(44.5425°N, 10.7801°E)
Time: 10:29:29
(UTC+00:00)

N. Korean satellite - Pass Details

Date: 23 January 2020
Orbit: 456 x 505 km, 97.2° (Epoch: 25 February)

Event Time Altitude Azimuth Distance (km) Brightness Sun altitude
Rises 17:11:17 0° 205° (SSW) 2,464 10.8 -10.5°
Reaches altitude 10° 17:13:55 10° 228° (SW) 1,595 10.3 -11.0°
Maximum altitude 17:16:05 16° 267° (W) 1,277 9.9 -11.3°
Drops below altitude 10° 17:18:18 10° 308° (NW) 1,605 9.7 -11.7°
Sets 17:20:58 0° 330° (NNW) 2,488 10.4 -12.2°
